Temp
8 8 7 6 6 8 8 7 10 7 6 9 8 9 9 10 10 11 10 9 10 10 11 9 8 7 7 7 9 8 9 9 9 10 11 10 10 13 13 12 12 12 12 16
8 8 7 7 7 8 7 9 9 7 6 9 9 10 10 9 10 10 10 9 10 9 10 10 10 8 6 8 9 10 10 9 9 9 11 11 10 12 13 13 12 12 15 16
8 8 7 7 7 8 7 8 8 9 8 6 8 7 8 8 9 9 9 9 11 9 11 12 9 8 6 8 10 10 11 10 11 11 12 12 11 12 12 13 13 14 16 16
8 8 8 7 7 7 7 7 6 5 7 8 7 7 7 7 8 8 9 10 9 8 9 10 9 8 6 6 7 9 10 9 11 11 11 11 12 12 12 11 14 15 16 16
8 8 8 7 8 8 5 8 6 4 6 5 7 6 7 7 7 7 9 9 9 9 9 8 8 8 8 7 6 6 7 10 10 11 12 12 11 13 13 13 14 14 14 15
8 8 7 7 8 7 5 1 2 6 5 6 7 7 6 7 6 8 8 8 7 9 8 8 8 8 7 7 7 7 7 9 11 11 11 12 11 13 13 13 14 14 14 16
8 8 7 7 7 8 5 2 3 7 8 7 7 5 5 6 5 5 7 8 8 9 8 8 7 7 7 7 7 7 7 8 11 12 12 13 13 12 14 13 14 14 14 15
8 8 6 6 6 6 5 3 4 6 8 7 5 5 5 5 5 5 6 7 8 7 7 11 12 12 11 11 11 8 9 11 13 13 13 13 12 12 12 12 13 14 14 15
8 7 6 5 5 5 5 3 3 5 8 7 5 5 4 5 5 6 6 7 6 7 9 11 11 11 11 12 12 11 11 11 12 12 12 13 13 12 12 12 13 13 14 15
8 7 6 5 5 5 4 3 3 4 6 5 4 5 5 4 5 5 5 5 6 8 10 10 10 11 10 11 11 11 12 12 12 13 13 13 12 12 11 12 13 12 12 14
7 6 5 5 4 4 4 3 3 3 5 4 3 4 4 4 4 5 6 6 7 7 8 9 9 10 10 10 10 10 11 11 12 12 12 12 12 12 13 12 13 12 12 13
7 6 5 4 4 4 4 3 3 3 4 5 2 3 3 3 4 4 5 5 4 4 6 7 7 9 9 9 12 10 11 11 11 11 13 11 11 11 10 11 12 12 13 12
7 6 5 4 4 4 4 3 3 2 4 4 5 5 3 3 3 3 5 5 5 4 4 5 5 7 8 10 11 10 11 9 11 11 10 11 11 10 10 10 11 10 10 11
6 5 4 4 4 4 3 3 3 3 3 7 6 3 3 3 3 3 3 4 4 4 4 5 5 7 8 10 9 9 11 10 11 12 11 11 10 10 10 9 10 9 8 9
5 4 4 3 4 4 3 2 2 2 4 7 6 3 3 4 3 2 2 3 4 4 5 5 6 7 8 9 7 9 10 11 12 13 11 11 11 10 9 10 9 9 9 8
4 4 3 3 3 3 3 3 2 2 2 4 6 3 4 3 3 2 2 3 3 4 4 5 6 7 8 8 10 11 10 9 9 11 9 10 9 9 9 9 8 8 8 8
4 3 3 3 3 3 2 4 2 2 2 4 5 6 4 2 3 3 3 2 4 4 4 3 6 7 8 8 9 11 10 9 9 8 9 9 9 9 7 8 7 6 6 6
3 3 3 2 3 2 2 1 2 2 2 3 4 5 5 2 5 5 3 4 4 4 5 6 6 9 8 8 10 9 9 8 8 8 7 7 7 7 6 6 6 6 6 6
3 3 2 2 2 2 1 2 2 2 3 3 3 5 6 3 4 4 4 3 4 5 5 6 7 7 7 8 7 7 6 6 7 6 6 6 7 6 6 6 5 5 5 5
3 3 3 2 1 2 2 2 3 3 3 3 4 1 4 3 4 4 4 4 5 6 6 7 7 8 5 3 3 4 4 5 5 6 7 6 6 6 5 5 5 4 3 3
4 3 1 0 1 2 2 3 3 3 3 3 3 3 3 3 3 3 3 4 5 6 7 7 8 7 4 3 2 3 3 4 4 4 4 4 4 5 4 3 2 2 2 1
4 2 2 1 2 1 2 2 3 2 4 3 3 3 2 3 3 3 4 4 4 6 6 7 8 4 3 2 2 2 3 2 2 2 2 2 2 2 2 2 1 1 0 -0
3 2 1 3 0 3 4 3 1 0 1 2 2 2 2 3 3 3 3 5 6 6 7 8 5 4 3 3 2 2 2 2 2 1 1 1 1 0 0 -0 -1 -1 -1 -2
4 3 3 4 2 3 3 4 2 1 1 1 1 1 2 2 2 4 3 6 5 7 6 5 5 4 3 3 2 2 2 1 1 -0 0 1 1 -1 -2 -2 -3 -2 -2 -3
2 4 5 1 1 -1 -1 -1 0 -1 -0 1 1 1 1 0 2 2 3 4 6 5 6 5 4 3 2 1 1 1 1 1 -0 -2 -2 -2 -3 -2 -3 -4 -4 -4 -3 -3
0 -0 0 -0 1 1 1 0 1 -1 -0 1 1 1 1 2 1 2 3 4 5 5 4 3 2 1 0 0 1 0 0 -0 -1 -1 -2 -2 -2 -2 -3 -4 -4 -4 -4 -4
1 -0 0 -0 1 1 1 1 0 -1 1 0 0 -1 1 1 0 1 2 4 5 4 3 3 1 0 -0 -1 -0 -0 -0 -1 -2 -3 -3 -2 -4 -3 -3 -3 -4 -4 -4 -4
Height
799 797 796 793 789 786 786 787 787 791 791 787 787 784 784 780 776 775 774 778 770 764 759 765 770 771 775 778 774 779 777 778 777 772 769 774 773 758 756 759 758 759 757 741
796 795 793 791 787 785 784 786 790 790 789 787 785 780 780 782 781 778 776 778 775 773 764 761 760 768 778 776 773 772 774 776 777 779 772 768 772 759 756 755 760 761 742 742
794 793 791 788 786 783 784 789 789 791 791 798 790 791 788 785 783 780 782 779 771 775 763 757 764 770 782 777 774 774 771 770 762 758 757 756 766 760 760 757 757 750 736 738
791 790 789 786 784 782 784 791 797 799 792 790 795 794 794 790 787 786 780 773 780 781 770 763 766 772 784 784 783 778 774 772 765 762 761 760 756 756 755 763 752 746 744 742
788 787 787 786 783 781 784 787 792 801 798 800 795 797 793 796 793 791 780 778 779 777 773 777 773 777 773 777 785 787 786 768 765 756 749 748 755 751 750 750 750 751 751 744
786 786 786 785 782 781 785 792 795 792 800 797 793 796 798 796 798 787 787 786 787 774 777 778 775 775 777 778 778 781 784 771 754 754 753 750 756 748 750 749 744 747 748 741
783 784 785 784 783 781 782 788 791 789 787 792 793 800 802 799 799 799 790 788 782 776 778 771 772 774 775 775 774 777 778 773 755 745 749 741 745 748 743 745 745 746 745 746
780 782 784 784 784 784 782 786 789 788 788 794 799 801 800 798 797 797 793 786 785 782 775 756 750 752 757 760 761 770 770 759 745 742 739 745 745 747 748 749 746 743 743 743
776 780 783 784 785 786 785 787 788 790 787 795 799 799 802 799 796 790 790 787 785 781 774 760 753 756 758 752 755 760 761 759 751 746 743 740 745 748 749 749 743 742 741 742
773 778 782 784 785 786 786 788 789 791 791 800 802 798 800 803 800 797 795 792 788 780 769 765 766 759 767 756 758 757 753 750 745 743 741 744 748 750 751 750 746 744 743 740
770 776 780 783 785 786 787 789 790 791 794 802 803 803 803 803 803 798 797 793 789 786 777 778 776 770 771 766 764 764 761 755 747 748 743 747 750 747 744 747 745 744 742 742
768 773 778 782 784 786 787 789 790 791 794 800 802 803 803 804 805 805 803 801 803 802 793 790 791 774 774 776 752 765 756 760 756 755 748 755 755 752 753 751 747 746 744 746
766 772 777 781 784 785 786 788 789 792 795 802 801 800 803 802 804 806 804 803 804 805 806 801 796 787 781 767 760 767 759 767 760 757 757 755 755 756 755 754 752 752 752 750
764 771 776 780 783 786 787 788 788 791 794 790 800 802 802 803 803 804 804 804 805 805 805 799 797 789 783 774 772 774 761 766 757 752 754 755 757 758 757 757 756 756 758 757
763 771 775 779 782 785 788 789 789 789 792 786 797 803 802 802 803 803 804 804 804 804 801 798 791 784 783 778 782 770 762 756 752 747 755 754 755 759 760 759 760 761 760 761
764 770 774 779 782 785 788 790 791 789 790 790 793 802 802 802 802 803 804 804 805 805 803 797 793 788 783 777 767 760 764 764 764 757 761 759 759 761 761 761 762 762 762 762
764 770 775 780 783 786 788 787 788 789 790 791 796 796 802 802 802 803 804 805 804 804 803 802 791 786 782 777 769 759 764 764 764 765 764 761 762 760 763 763 765 765 766 766
763 770 776 781 785 787 788 788 790 790 790 793 796 796 798 803 799 799 802 801 802 801 799 795 787 779 779 772 766 767 767 767 766 766 767 765 765 766 766 766 766 766 767 767
763 769 778 783 787 787 788 789 791 791 793 795 797 796 795 803 802 802 801 801 799 798 795 787 785 780 780 774 776 774 776 773 770 769 768 768 767 767 767 767 768 767 768 768
763 773 778 783 787 788 790 792 792 792 794 795 796 807 798 804 801 800 800 796 793 787 785 782 780 774 782 787 784 782 779 776 773 769 768 769 769 769 770 769 769 770 770 770
760 769 778 785 787 789 791 793 793 796 796 796 799 801 800 804 802 801 803 796 792 783 778 780 771 771 786 786 784 782 780 777 776 774 774 773 771 769 770 771 771 772 772 771
754 762 774 785 788 792 794 798 797 796 792 798 796 798 802 803 804 802 800 798 794 784 783 776 767 786 790 788 786 783 780 778 777 776 774 774 774 773 772 773 773 773 772 772
755 760 773 775 792 788 784 791 801 803 799 798 798 799 802 803 804 800 800 793 785 783 774 768 784 789 787 787 784 781 780 779 777 776 775 774 775 775 774 774 774 774 773 772
747 756 772 770 785 779 777 776 782 791 793 796 798 802 801 804 803 798 798 786 788 773 773 779 783 785 784 784 783 781 778 777 777 776 776 775 776 776 777 776 775 775 774 773
750 751 757 779 778 783 784 787 789 795 796 796 799 803 805 808 804 802 799 792 774 778 776 779 780 784 784 781 779 777 775 774 775 776 776 776 776 776 777 776 775 775 774 773
754 764 773 778 776 782 783 787 790 796 796 797 799 802 806 803 806 802 794 784 774 773 779 780 781 782 781 779 777 774 772 771 773 774 774 774 774 775 775 775 775 774 773 772
758 768 768 771 771 775 781 784 790 795 794 796 800 808 803 807 807 800 789 778 774 776 778 780 781 780 777 775 772 770 768 768 770 772 773 772 772 773 774 774 773 772 771 772
Wind_Speed
7 11 13 15 18 12 3 3 0 5 3 0 1 2 3 4 6 4 2 2 6 5 6 2 3 2 2 10 11 8 4 2 4 4 1 2 7 4 5 3 3 1 4 4
5 9 11 14 16 10 4 2 1 3 1 1 1 1 3 2 5 5 5 4 5 4 4 3 5 5 2 9 11 11 7 3 4 2 4 4 5 5 5 3 2 0 1 5
2 7 9 13 15 7 4 2 1 2 3 1 2 3 4 5 5 2 4 3 4 8 3 4 6 3 3 1 6 4 7 2 4 1 1 5 6 9 8 3 2 0 7 7
1 5 8 12 14 4 4 2 2 1 1 2 2 1 4 5 5 3 4 3 8 5 4 7 7 5 3 1 3 2 5 3 4 8 10 5 5 12 13 9 10 3 5 2
2 2 6 10 12 3 5 2 3 2 2 0 2 3 2 5 5 3 1 4 10 6 3 4 5 7 4 4 4 3 2 2 2 3 6 10 9 11 16 16 11 9 1 2
6 3 4 8 11 3 4 3 2 1 2 2 2 1 2 3 6 4 5 7 6 7 5 12 15 11 9 2 5 8 5 3 2 2 2 8 5 14 18 15 11 10 8 3
10 6 5 7 10 9 7 4 4 2 3 2 1 1 2 5 6 4 8 6 3 5 17 14 2 3 4 5 8 6 6 4 3 2 2 2 3 2 10 16 14 14 7 2
14 10 7 6 8 11 13 6 2 2 3 2 2 2 3 6 4 3 4 3 6 13 8 3 2 2 3 3 5 12 8 4 2 2 2 2 1 2 2 11 12 14 16 12
18 13 9 7 7 7 13 10 6 2 3 2 1 1 2 3 5 2 2 5 10 7 2 2 2 2 3 2 2 5 4 9 4 1 1 1 2 3 2 4 5 2 13 13
20 16 12 9 7 7 6 7 6 3 3 2 1 2 2 2 2 3 3 7 8 8 4 3 4 2 1 2 4 3 1 1 2 1 0 2 2 4 1 4 3 6 5 11
22 19 15 11 8 8 5 8 7 3 3 2 2 2 1 0 2 3 5 3 3 5 3 3 2 2 3 2 1 4 3 2 1 1 1 1 4 2 3 3 4 3 3 6
25 21 17 13 9 8 7 5 5 6 4 3 2 3 4 3 3 3 3 2 1 3 1 2 3 1 2 3 1 2 1 3 3 2 3 2 3 3 3 3 2 4 6 5
27 23 18 15 11 7 6 9 8 4 3 2 2 1 0 2 8 4 2 1 1 2 1 1 0 3 2 2 2 4 2 1 3 3 1 1 1 2 3 4 5 6 6 6
27 23 19 16 14 9 8 5 8 4 3 3 2 1 1 1 3 4 6 2 2 0 1 1 1 2 1 2 3 2 3 3 2 3 2 2 2 2 3 5 7 7 7 7
28 24 20 17 14 11 11 12 9 5 1 3 3 1 1 2 2 2 4 6 2 1 2 2 3 2 1 2 2 4 3 1 2 2 4 2 1 2 2 5 6 4 6 7
29 25 21 18 13 17 9 2 2 4 2 2 3 1 1 2 2 4 3 5 2 1 2 2 3 3 2 2 2 2 2 2 4 2 4 3 3 3 2 4 4 5 6 5
31 25 21 18 17 11 1 2 7 6 5 2 3 2 2 2 0 2 2 2 1 2 1 2 3 2 2 1 4 2 1 3 3 3 2 2 2 1 3 5 5 6 7 6
29 24 20 19 14 12 5 7 6 6 5 3 3 2 1 5 1 1 2 2 2 3 2 3 3 2 2 3 3 7 4 3 2 3 3 2 4 4 4 4 3 3 3 3
30 27 26 18 1 2 5 11 8 7 3 3 2 1 0 3 2 1 2 2 2 2 2 3 2 1 3 4 7 7 7 5 5 3 2 1 1 2 2 2 2 2 2 2
37 27 4 3 2 18 10 1 1 2 2 2 2 2 1 1 2 1 2 2 1 2 4 2 3 3 6 7 6 6 6 6 6 3 3 1 2 2 1 2 3 3 2 2
11 4 3 9 14 3 2 2 2 1 2 1 2 2 0 1 1 1 1 2 2 2 1 2 2 2 5 9 8 6 5 5 4 3 3 3 3 1 1 2 3 3 2 3
14 18 18 7 2 3 4 2 1 1 3 3 2 2 2 1 1 2 1 2 1 3 0 2 2 3 9 9 9 8 6 4 3 3 2 3 3 3 1 2 2 3 2 3
14 6 4 3 2 2 5 6 2 2 4 4 3 2 1 1 2 1 1 3 3 3 2 1 3 5 7 10 8 7 7 5 3 1 0 2 2 3 2 2 2 1 1 2
3 4 4 2 3 4 3 3 3 2 3 5 3 3 1 1 1 0 2 2 2 3 1 2 2 5 7 8 8 8 7 4 2 0 2 1 2 2 1 1 1 0 1 2
3 2 4 3 3 3 3 4 4 1 4 4 3 3 2 1 1 1 2 2 3 1 2 2 2 5 7 8 9 8 7 5 4 4 4 3 2 3 2 1 0 1 1 1
3 4 4 3 3 2 3 3 4 2 3 3 3 3 2 2 2 2 5 3 4 3 2 2 3 4 6 6 8 9 9 6 6 4 4 3 3 2 2 2 2 2 0 0
3 2 3 2 3 4 4 3 4 6 2 2 3 4 4 2 1 3 3 3 2 2 2 3 4 5 7 6 8 9 4 5 6 6 2 3 2 2 4 6 4 2 2 2
Wind_Direction
327 348 348 357 359 11 118 114 149 350 145 86 358 51 315 319 320 347 343 275 322 335 337 293 264 238 239 182 163 175 177 112 157 217 85 187 278 197 188 304 149 22 318 77
323 353 351 356 2 20 117 83 44 342 307 70 32 10 0 310 337 353 2 339 355 297 340 347 340 63 22 177 169 165 178 179 127 135 275 183 227 184 224 111 320 351 300 113
320 0 358 2 5 23 102 119 139 41 64 31 338 16 1 343 351 252 350 319 8 344 309 15 356 72 69 206 185 197 183 226 247 180 53 153 193 205 212 206 267 111 112 113
209 8 8 12 8 55 113 29 103 18 78 83 59 42 359 344 359 349 327 157 12 326 304 352 12 79 97 5 12 168 202 257 248 252 260 278 237 199 192 201 223 250 134 71
182 30 21 22 15 90 85 137 158 152 114 124 229 25 26 350 333 278 13 0 338 329 326 8 321 4 173 196 172 147 176 268 253 269 255 239 216 218 210 223 224 251 227 274
180 132 58 42 30 124 105 118 105 243 128 138 198 53 8 335 333 217 274 330 320 312 6 314 294 277 258 282 181 182 180 244 254 260 161 149 193 207 209 216 231 219 216 196
173 155 102 66 55 69 115 140 132 169 131 169 92 109 284 281 322 281 315 319 297 360 324 300 126 135 208 224 209 202 191 213 228 320 195 161 55 331 218 218 230 234 235 178
169 157 134 102 76 69 98 123 136 144 114 105 155 237 289 307 311 268 263 300 309 311 302 313 152 139 178 158 199 200 217 248 239 264 226 111 126 68 141 192 239 241 245 242
164 159 149 127 115 93 83 80 97 110 142 122 111 145 10 349 345 291 257 313 312 325 300 321 51 66 351 345 134 199 198 242 268 157 294 12 47 40 273 190 256 356 231 231
163 162 156 140 128 129 114 84 81 102 102 157 193 69 38 330 333 296 322 340 351 353 358 36 26 47 318 352 339 337 304 305 263 215 221 114 24 339 91 215 67 324 250 213
166 164 161 150 138 144 128 100 69 112 93 126 193 148 107 125 357 357 348 261 26 6 58 9 13 345 17 284 328 329 319 326 15 291 244 166 15 233 265 1 344 334 85 150
167 165 163 157 149 140 153 117 116 102 81 95 174 219 232 229 254 316 4 30 353 46 19 51 302 319 326 328 31 149 269 324 324 285 35 16 336 340 333 309 17 54 93 107
166 165 163 157 156 139 146 134 134 115 114 118 166 103 287 220 228 233 293 129 32 68 352 316 309 283 296 328 10 299 212 165 267 299 62 316 17 52 37 43 82 58 59 85
164 164 160 157 154 150 143 139 141 128 118 119 128 319 116 165 242 229 217 113 100 34 260 253 269 278 252 292 326 266 299 314 302 272 232 231 158 89 90 82 84 81 63 65
162 161 159 158 158 166 147 113 104 95 288 116 134 138 154 295 273 263 206 189 195 257 234 226 232 261 265 252 284 252 200 275 274 18 353 313 66 111 128 123 98 96 119 99
160 160 153 157 157 157 147 115 93 76 85 113 139 65 115 11 60 101 168 181 176 162 256 275 280 270 272 265 269 285 237 268 277 324 342 320 96 88 66 92 79 79 83 89
162 153 148 150 147 176 103 90 145 141 123 109 114 128 69 347 254 119 114 211 213 225 242 250 267 284 265 266 264 352 270 318 311 301 228 180 204 158 73 103 103 95 91 83
151 145 144 146 137 119 89 93 116 133 100 53 108 102 144 7 14 48 158 181 229 204 269 261 249 235 235 256 324 334 332 336 326 353 338 342 115 129 111 110 128 114 85 70
144 136 137 127 146 103 132 113 100 83 77 109 81 94 89 351 36 265 234 194 245 158 239 247 212 261 248 345 340 355 356 346 334 346 9 31 108 127 117 118 76 114 83 50
139 137 141 105 124 125 118 84 22 29 21 45 91 112 100 335 355 343 307 245 233 236 222 233 209 241 70 8 329 312 327 338 337 300 282 281 244 221 235 101 79 62 43 9
146 129 83 126 141 123 48 73 61 52 65 83 101 160 51 122 354 333 245 330 294 259 145 247 228 158 356 340 331 332 333 350 14 30 33 23 17 95 185 102 71 60 42 21
165 123 116 134 131 70 88 38 84 177 169 167 164 142 181 126 229 250 197 273 261 250 36 236 224 42 350 335 328 318 327 334 357 28 49 39 31 17 76 79 72 59 51 22
133 85 97 151 29 124 199 176 216 223 185 186 163 130 90 163 228 268 291 249 237 335 226 236 59 329 339 339 330 311 293 300 275 302 146 117 100 62 67 107 49 38 42 19
111 139 102 144 174 237 184 172 138 136 135 136 114 104 105 60 155 225 250 271 298 253 282 48 268 326 333 334 323 314 293 259 234 72 334 253 220 179 115 79 59 75 76 39
101 108 138 174 114 61 89 101 106 68 133 120 108 84 76 34 214 206 284 246 244 206 193 229 274 316 317 317 317 311 291 232 207 206 227 226 237 213 192 110 75 218 150 83
81 80 105 112 100 116 131 109 120 162 131 97 70 102 133 209 217 207 219 233 226 178 205 234 285 285 288 292 311 307 291 232 190 193 209 186 192 215 231 209 241 215 189 312
72 78 82 118 83 132 140 131 157 161 135 118 121 146 193 88 220 242 219 224 189 191 243 269 259 270 288 289 293 298 270 175 172 178 148 90 63 280 228 229 226 231 249 275